Location: *
(45.9500°N, 9.0833°E)
Time: 11:31:01
(UTC+00:00)

SR - All Passes

Search period start: 14 June 2021 00:00
Search period end: 24 June 2021 00:00
Orbit: 574 x 880 km, 66.7° (Epoch: 13 June)

Date Brightness Start Highest point End Pass type
(mag) Time Alt. Az. Time Alt. Az. Time Alt. Az.
14 Jun - 00:12:34 10° NNW 00:16:28 19° NNE 00:20:11 10° E visible
14 Jun - 01:54:04 10° NNW 01:59:30 82° ENE 02:04:24 10° SE visible
14 Jun - 03:37:57 10° WNW 03:40:42 15° WSW 03:43:21 10° SW daylight
14 Jun - 16:25:24 10° S 16:30:45 37° ESE 16:36:06 10° NE daylight
14 Jun - 18:07:07 10° WSW 18:12:48 46° NW 18:18:25 10° NNE daylight
14 Jun - 19:53:11 10° WNW 19:56:22 15° NNW 19:59:30 10° N visible
14 Jun - 23:23:13 10° N 23:25:57 14° NNE 23:28:35 10° NE visible
15 Jun - 01:04:19 10° NNW 01:09:33 46° NE 01:14:18 10° ESE visible
15 Jun - 02:46:54 10° NW 02:51:22 29° WSW 02:55:30 10° SSW visible
15 Jun - 15:37:06 10° SSE 15:41:17 21° ESE 15:45:30 10° ENE daylight
15 Jun - 17:16:54 10° SW 17:22:50 77° NW 17:28:42 10° NNE daylight
15 Jun - 19:01:31 10° W 19:05:52 21° NW 19:10:08 10° NNE daylight
15 Jun - 22:34:36 10° N 22:35:17 10° NNE 22:35:59 10° NNE visible
16 Jun - 00:14:43 10° NNW 00:19:23 28° NE 00:23:42 10° E visible
16 Jun - 01:56:38 10° NW 02:01:51 56° WSW 02:06:34 10° SSE visible
16 Jun - 14:51:22 10° ESE 14:52:00 10° E 14:52:39 10° E daylight
16 Jun - 16:27:12 10° SSW 16:33:02 63° ESE 16:38:50 10° NE daylight
16 Jun - 18:10:21 10° WSW 18:15:33 31° NW 18:20:39 10° NNE daylight
16 Jun - 19:57:53 10° NW 19:59:33 11° NNW 20:01:13 10° N visible
16 Jun - 23:25:15 10° N 23:29:01 18° NNE 23:32:36 10° ENE visible
17 Jun - 01:06:42 10° NNW 01:12:06 77° NE 01:16:58 10° SE visible
17 Jun - 02:50:24 10° WNW 02:53:22 16° WSW 02:56:12 10° SW visible
17 Jun - 15:38:08 10° S 15:43:25 35° ESE 15:48:40 10° NE daylight
17 Jun - 17:19:41 10° SW 17:25:24 48° NW 17:31:03 10° NNE daylight
17 Jun - 19:05:37 10° WNW 19:08:55 15° NNW 19:12:09 10° N daylight
17 Jun - 22:35:58 10° N 22:38:29 13° NNE 22:40:56 10° NE visible
18 Jun - 00:16:58 10° NNW 00:22:07 43° NE 00:26:49 10° ESE visible
18 Jun - 01:59:28 10° NW 02:04:01 31° WSW 02:08:13 10° S visible
18 Jun - 14:49:56 10° SSE 14:53:58 19° ESE 14:57:59 10° ENE daylight
18 Jun - 16:29:30 10° SW 16:35:27 81° WNW 16:41:20 10° NNE daylight
18 Jun - 18:14:00 10° W 18:18:26 21° NW 18:22:47 10° NNE daylight
18 Jun - 23:27:24 10° NNW 23:31:57 26° NE 23:36:10 10° E visible
19 Jun - 01:09:15 10° NW 01:14:28 60° WSW 01:19:12 10° SSE visible
19 Jun - 15:39:52 10° SSW 15:45:41 59° ESE 15:51:25 10° NE daylight
19 Jun - 17:22:53 10° WSW 17:28:08 32° NW 17:33:17 10° NNE daylight
19 Jun - 19:10:15 10° NW 19:12:05 11° NNW 19:13:53 10° N daylight
19 Jun - 22:37:57 10° N 22:41:34 18° NNE 22:45:00 10° ENE visible
20 Jun - 00:19:21 10° NNW 00:24:42 73° NE 00:29:32 10° SE visible
20 Jun - 02:02:52 10° WNW 02:06:01 17° WSW 02:09:02 10° SW visible
20 Jun - 14:50:53 10° S 14:56:04 33° ESE 15:01:14 10° NE daylight
20 Jun - 16:32:15 10° SW 16:38:01 51° NW 16:43:41 10° NNE daylight
20 Jun - 18:18:03 10° WNW 18:21:28 15° NNW 18:24:48 10° N daylight
20 Jun - 21:48:42 10° N 21:51:01 13° NNE 21:53:15 10° NE visible
20 Jun - 23:29:38 10° NNW 23:34:42 40° NE 23:39:20 10° ESE visible
21 Jun - 01:12:03 10° NW 01:16:39 33° WSW 01:20:54 10° S visible
21 Jun - 14:02:48 10° SE 14:06:39 18° ESE 14:10:28 10° ENE daylight
21 Jun - 15:42:08 10° SSW 15:48:05 85° NW 15:53:56 10° NNE daylight
21 Jun - 17:26:29 10° W 17:31:00 22° NW 17:35:25 10° NNE daylight
21 Jun - 22:40:04 10° NNW 22:44:30 25° NE 22:48:38 10° E visible
22 Jun - 00:21:52 10° NW 00:27:05 64° WSW 00:31:48 10° SSE visible
22 Jun - 14:52:33 10° SSW 14:58:19 56° ESE 15:04:01 10° NE daylight
22 Jun - 16:35:24 10° WSW 16:40:44 33° NW 16:45:55 10° NNE daylight
22 Jun - 18:22:38 10° NW 18:24:37 12° NNW 18:26:34 10° N daylight
22 Jun - 21:50:38 10° N 21:54:06 17° NNE 21:57:24 10° ENE visible
22 Jun - 23:31:59 10° NNW 23:37:18 68° NE 23:42:05 10° SE visible
23 Jun - 01:15:21 10° WNW 01:18:41 18° WSW 01:21:49 10° SSW visible
23 Jun - 14:03:38 10° S 14:08:44 31° ESE 14:13:47 10° NE daylight
23 Jun - 15:44:50 10° SW 15:50:37 54° NW 15:56:18 10° NNE daylight
23 Jun - 17:30:30 10° WNW 17:34:00 16° NNW 17:37:27 10° N daylight
23 Jun - 21:01:28 10° N 21:03:32 12° NNE 21:05:34 10° NE visible
23 Jun - 22:42:17 10° NNW 22:47:16 38° NE 22:51:50 10° ESE visible
